{"data":{"norad_id":59626,"epoch":"2026-05-25T03:55:50.948832Z","epoch_age_seconds":71202,"freshness":"FRESH","line1":"1 59626U 24081B   26145.16378413  .00003896  00000+0  20332-3 0  9992","line2":"2 59626  97.5017 223.3675 0012796  61.2087 299.0429 15.16455538114055","mean_motion":15.16455538,"eccentricity":0.0012796,"inclination_deg":97.5017,"raan_deg":223.3675,"arg_perigee_deg":61.2087,"mean_anomaly_deg":299.0429,"bstar":0.00020332,"rev_number":11405,"period_min":94.95827367937,"perigee_km":507.74074768234,"apogee_km":525.38566444971,"semimajor_km":6894.700206066,"source":"CELESTRAK","updated_at":"2026-05-25T13:38:12.836542Z"}}